sat.trackr.live / text

‹ back to catalog

STARLINK-31975

NORAD 59886 · 2024-100B

PAYLOAD ACTIVE UNKNOWN

§ Identity

Operator
Country
US
Launch date
2024-05-28
Launch site
AFETR
Launch vehicle
Mass (kg)
RCS (m²)

Purposes: comms

External: N2YO · Heavens-Above · Gunter

§ Orbital elements

Epoch: 2026-05-25T02:35:03.170112Z

Period
94.27 min
Inclination
43.0009°
Eccentricity
0.0000859
Mean motion
15.27589890 rev/d
Perigee alt
482.4 km
Apogee alt
483.6 km
Semi-major
6,861.2 km
B*
9.2636e-6
RAAN
53.8628°
Arg perigee
268.0325°
Mean anomaly
92.0428°
Rev number
11,284

§ Raw data

STARLINK-319751 59886U 24100B   26145.10767558 -.00000007  00000+0  92636-5 0  99982 59886  43.0009  53.8628 0000859 268.0325  92.0428 15.27589890112849

JSON: /api/v1/satellites/59886 · /tle

For live sub-satellite position, see the globe view (requires WebGL).

§ Visibility from observer

Set your observer location to see the next 7 days of passes ≥ 10°. The values pass through the URL so the page stays shareable.

No JS? Fill the form by hand. The geolocation button needs JavaScript.